EW2175 Weather Reports


time (UTC)temp
C
wind
direction
speed
KPH
gust
KPH
rain 1hr
cm
rain 24hr
cm
rain mn
cm
humidity
%
barometer
mb
20260905221603 17 90 1.6 9.7 0.00 0.05 0.00 71 1023.6
20260905220100 18 59 0.0 6.4 0.00 0.05 0.00 71 1023.6
20260905214557 18 51 0.0 4.8 0.00 0.05 0.05 70 1023.6
20260905213054 18 54 0.0 8.0 0.00 0.05 0.05 69 1023.4
20260905211554 18 7 0.0 0.0 0.00 0.05 0.05 69 1023.3
20260905210110 19 7 0.0 0.0 0.00 0.05 0.05 69 1023.3
20260905204553 19 7 0.0 0.0 0.00 0.05 0.05 69 1023.3
20260905203052 20 2 0.0 8.0 0.00 0.05 0.05 67 1023.1
20260905201550 20 73 0.0 6.4 0.00 0.05 0.05 65 1022.8
20260905200111 20 86 0.0 6.4 0.00 0.05 0.05 64 1022.5
20260905194546 20 37 0.0 9.7 0.00 0.05 0.05 64 1022.4
20260905193045 21 62 0.0 4.8 0.00 0.05 0.05 63 1022.2
20260905191543 21 183 0.0 0.0 0.00 0.05 0.05 63 1022.0
20260905190043 22 184 0.0 0.0 0.00 0.05 0.05 61 1022.0
20260905184549 23 217 0.0 0.0 0.00 0.05 0.05 59 1021.8
20260905183043 23 217 0.0 0.0 0.00 0.05 0.05 58 1021.6
20260905181544 24 217 0.0 0.0 0.00 0.05 0.05 57 1021.5
20260905180041 25 217 0.0 4.8 0.00 0.05 0.05 55 1021.4
20260905174537 25 261 0.0 9.7 0.00 0.05 0.05 52 1021.4
20260905173043 26 221 1.6 6.4 0.00 0.05 0.05 50 1021.3
20260905171537 26 198 0.0 6.4 0.00 0.05 0.05 48 1021.1
20260905170036 26 164 4.8 8.0 0.00 0.05 0.05 47 1021.2
20260905164534 26 207 1.6 11.3 0.00 0.05 0.05 47 1021.1
20260905163033 26 240 1.6 9.7 0.00 0.05 0.05 47 1021.1
20260905161532 26 246 6.4 14.5 0.00 0.05 0.05 49 1021.1
20260905160032 26 231 4.8 17.7 0.00 0.05 0.05 49 1021.0
20260905154531 26 199 6.4 14.5 0.00 0.05 0.05 49 1021.0
20260905153035 26 252 6.4 16.1 0.00 0.05 0.05 50 1021.0
20260905151530 26 159 6.4 16.1 0.00 0.05 0.05 49 1021.0
20260905150029 26 254 6.4 14.5 0.00 0.05 0.05 51 1021.0
20260905144528 26 260 9.7 19.3 0.00 0.05 0.05 50 1021.0
20260905143034 26 239 8.0 24.1 0.00 0.05 0.05 51 1021.0
20260905141526 25 200 9.7 19.3 0.00 0.05 0.05 55 1021.0
20260905140025 25 96 8.0 22.5 0.00 0.05 0.05 59 1021.0
20260905134532 25 160 12.9 25.7 0.00 0.05 0.05 60 1021.3
20260905133030 24 183 9.7 24.1 0.00 0.05 0.05 61 1021.2
20260905131630 25 177 12.9 24.1 0.00 0.05 0.05 59 1021.2
20260905130047 25 202 11.3 25.7 0.00 0.05 0.05 56 1021.3
20260905124559 25 204 12.9 22.5 0.00 0.05 0.05 55 1021.1
20260905123157 24 173 12.9 20.9 0.00 0.05 0.05 56 1021.1
20260905121556 24 209 11.3 20.9 0.00 0.05 0.05 59 1021.1
20260905120055 24 234 12.9 30.6 0.00 0.05 0.05 60 1021.1
20260905114553 24 129 9.7 30.6 0.00 0.05 0.05 57 1021.0
20260905113051 25 165 6.4 20.9 0.00 0.05 0.05 55 1020.9
20260905111557 25 217 9.7 19.3 0.00 0.05 0.05 57 1021.0
20260905110051 26 204 9.7 19.3 0.00 0.05 0.05 54 1021.0
20260905104550 26 208 0.0 12.9 0.00 0.05 0.05 50 1020.9
20260905103056 26 259 0.0 9.7 0.00 0.05 0.05 47 1020.9
20260905101546 26 308 0.0 9.7 0.00 0.05 0.05 47 1020.9
20260905100053 26 157 3.2 9.7 0.00 0.05 0.05 46 1020.8
20260905094540 25 219 0.0 0.0 0.00 0.05 0.05 51 1020.8
20260905093038 23 222 0.0 6.4 0.00 0.05 0.05 54 1020.8
20260905091543 22 244 0.0 4.8 0.00 0.05 0.05 60 1020.7
20260905090035 20 180 3.2 12.9 0.00 0.05 0.05 68 1020.7
20260905084534 20 70 0.0 0.0 0.00 0.05 0.05 86 1020.4
20260905083032 19 119 0.0 0.0 0.00 0.05 0.05 86 1020.3
20260905081527 19 119 0.0 0.0 0.00 0.05 0.05 87 1020.1
20260905080039 18 119 0.0 0.0 0.00 0.05 0.05 88 1020.1
20260905074528 18 34 0.0 0.0 0.00 0.05 0.05 89 1020.1
20260905073026 18 33 0.0 0.0 0.00 0.05 0.05 89 1019.9
20260905071522 18 33 0.0 0.0 0.03 0.05 0.05 89 1019.9
20260905070029 18 19 0.0 8.0 0.03 0.05 0.05 91 1019.8
20260905064517 18 340 0.0 0.0 0.03 0.05 0.05 91 1019.4
20260905063016 18 338 0.0 8.0 0.00 0.03 0.03 91 1019.3
20260905061514 18 332 3.2 8.0 0.00 0.03 0.03 90 1019.2
20260905060031 18 338 0.0 0.0 0.00 0.03 0.03 89 1018.9
20260905054509 18 302 0.0 0.0 0.00 0.03 0.03 89 1018.6
20260905053006 18 302 0.0 0.0 0.00 0.03 0.03 89 1018.5
20260905051507 18 300 0.0 0.0 0.00 0.03 0.03 89 1018.3
20260905050003 18 300 0.0 0.0 0.00 0.03 0.03 88 1018.4
20260905044606 18 300 0.0 0.0 0.03 0.03 0.03 87 1018.1
20260905043111 18 300 0.0 0.0 0.03 0.03 0.03 87 1018.0
20260905041558 18 350 0.0 9.7 0.03 0.03 0.03 87 1017.9
20260905040054 19 326 4.8 12.9 0.03 0.03 0.03 84 1017.8
20260905034558 20 43 0.0 8.0 0.00 0.00 0.00 79 1017.3
20260905033049 20 53 3.2 14.5 0.00 0.00 0.00 78 1017.6
20260905031547 20 329 4.8 19.3 0.00 0.00 0.00 75 1017.5
20260905030048 20 333 0.0 0.0 0.00 0.00 0.00 71 1017.1
20260905024542 20 333 0.0 0.0 0.00 0.00 0.00 70 1017.0
20260905023040 21 333 0.0 0.0 0.00 0.00 0.00 70 1016.7
20260905021545 21 333 0.0 0.0 0.00 0.00 0.00 69 1016.9
20260905020048 21 333 0.0 0.0 0.00 0.00 0.00 69 1016.7
20260905014537 21 333 0.0 0.0 0.00 0.00 0.00 68 1016.7
20260905013034 21 333 0.0 0.0 0.00 0.00 0.00 68 1016.6
20260905011547 21 332 0.0 0.0 0.00 0.00 0.00 65 1016.7
20260905010032 21 332 0.0 0.0 0.00 0.00 0.00 64 1016.6
20260905004533 22 332 0.0 0.0 0.00 0.00 0.00 63 1016.5
20260905003038 22 332 0.0 0.0 0.00 0.00 0.00 62 1016.4
20260905001521 22 332 0.0 0.0 0.00 0.00 0.00 61 1016.3
20260905000019 22 332 0.0 0.0 0.00 0.00 0.00 61 1016.0
20260904234520 23 332 0.0 6.4 0.00 0.00 0.00 60 1016.1
20260904233033 23 313 0.0 0.0 0.00 0.00 0.00 59 1015.8
20260904231511 23 284 0.0 6.4 0.00 0.00 0.00 57 1015.6
20260904230028 23 240 0.0 9.7 0.00 0.00 0.00 56 1015.4
20260904224507 24 249 1.6 8.0 0.00 0.00 0.00 57 1015.3
20260904223004 24 254 0.0 0.0 0.00 0.00 0.00 56 1014.9